{"data":{"norad_id":59790,"intl_designator":"2024-093J","name":"STARLINK-31873","alt_names":[],"object_type":"PAYLOAD","status":"ACTIVE","operator":null,"country":"US","launch_date":"2024-05-18","launch_site_code":"AFETR","launch_vehicle":null,"mission":null,"orbit_class":"UNKNOWN","rcs_meters":null,"size_class":null,"mass_kg":null,"dimensions":null,"purposes":["comms"],"wikipedia_slug":null,"has_3d_model":false,"image_url":null,"decayed_at":null,"tle_current":{"epoch":"2026-09-21T11:58:55.879968Z","epoch_age_seconds":88200,"freshness":"FRESH","line1":"1 59790U 24093J   26264.49925787  .00002401  00000+0  96744-4 0  9999","line2":"2 59790  43.0052 182.9223 0000992 264.1981  95.8758 15.27574144132642","mean_motion":15.27574144,"eccentricity":9.92e-5,"inclination_deg":43.0052,"raan_deg":182.9223,"arg_perigee_deg":264.1981,"mean_anomaly_deg":95.8758,"bstar":9.6744e-5,"rev_number":13264,"period_min":94.26711008798,"perigee_km":482.38599966615,"apogee_km":483.74726246656,"semimajor_km":6861.2036310664,"source":"CELESTRAK","updated_at":"2026-09-22T09:00:49.073040Z"}}}